Location: ?????????
(41.1143°N, 22.7905°E)
Time: 07:39:57
(UTC+00:00)

COSMO-SKYMED 1 - Pass Details

Date: 14 March 2026
Orbit: 576 x 578 km, 97.9° (Epoch: 18 April)

Event Time Altitude Azimuth Distance (km) Brightness Sun altitude
Rises 18:26:36 0° 348° (NNW) 2,800 6.3 -21.7°
Reaches altitude 10° 18:30:38 10° 309° (NW) 1,894 6.0 -22.4°
Maximum altitude 18:31:23 10° 298° (WNW) 1,864 6.1 -22.6°
Drops below altitude 10° 18:32:07 10° 287° (WNW) 1,891 6.2 -22.7°
Sets 18:36:08 0° 247° (WSW) 2,782 6.6 -23.4°
